Weather History for Imperial, NE

Change the Weather History Date:

Sunday, September 18, 2011

  Actual Average Record
Temperature  
Mean Temperature 62 °F 64 °F  
Max Temperature 76 °F 79 °F 100 °F (1932)
Min Temperature 48 °F 49 °F 32 °F (1912)
Degree Days  
Heating Degree Days 3 4  
Month to date heating degree days 70 37  
Cooling Degree Days 0 2  
Month to date cooling degree days 38 73  
Year to date cooling degree days 1075 939  
Growing Degree Days 12 (Base 50)    
Moisture  
Dew Point 46 °F    
Average Humidity 62    
Maximum Humidity 100    
Minimum Humidity 23    
Precipitation  
Precipitation 0.00 in 0.05 in 1.20 in (1988)
Sea Level Pressure  
Sea Level Pressure 30.09 in    
Wind  
Wind Speed 7 mph (NW)    
Max Wind Speed 18 mph    
Max Gust Speed 23 mph    
Visibility 8 miles    
Events      
T = Trace of Precipitation, MM = Missing Value Source: NWS Daily Summary

Daily Weather History Graph

Daily Weather History Graph

Search for Another Location

Airport:

Trip Planner

Search our weather history database for the weather conditions in past years. The results will help you decide how hot, cold, wet, or windy it might be!

Date:

Astronomy

Sep. 18, 2011 Rise Set
Actual Time 6:29 AM MDT 6:50 PM MDT
Civil Twilight 6:02 AM MDT 7:17 PM MDT
Nautical Twilight 5:30 AM MDT 7:50 PM MDT
Astronomical Twilight 4:57 AM MDT 8:22 PM MDT
Moon 10:06 PM MDT (9/18) 12:30 PM MDT (9/18)
Length of Visible Light 13h 15m
Length of Day
12h 20m
Waning Gibbous, 67% of the Moon is Illuminated
Sep 18
Waning Gibbous
Sep 20
Last Quarter
Sep 27
New
Oct 3
First Quarter
Oct 11
Full

Hourly Weather History & Observations

Time (MDT) Temp. Dew Point Humidity Pressure Visibility Wind Dir Wind Speed Gust Speed Precip Events Conditions
12:53 AM 54.0 °F 53.1 °F 97% 29.98 in 10.0 mi West 8.1 mph - N/A   Clear
1:53 AM 54.0 °F 51.1 °F 90% 30.00 in 10.0 mi NW 16.1 mph - N/A   Clear
2:07 AM 53.6 °F 51.8 °F 94% 30.04 in 10.0 mi NW 16.1 mph 23.0 mph N/A   Scattered Clouds
2:15 AM 53.6 °F 51.8 °F 94% 30.04 in 10.0 mi NNW 18.4 mph 21.9 mph N/A   Mostly Cloudy
2:53 AM 54.0 °F 53.1 °F 97% 30.00 in 10.0 mi NW 11.5 mph - N/A   Overcast
3:51 AM 53.6 °F 51.8 °F 94% 30.06 in 10.0 mi NW 11.5 mph - N/A   Scattered Clouds
3:53 AM 53.1 °F 52.0 °F 96% 30.03 in 10.0 mi NW 11.5 mph - N/A   Partly Cloudy
4:53 AM 51.8 °F 48.2 °F 88% 30.08 in 10.0 mi NW 9.2 mph - N/A   Clear
5:53 AM 50.0 °F 46.4 °F 87% 30.09 in 10.0 mi NW 6.9 mph - N/A   Clear
6:53 AM 48.0 °F 46.0 °F 93% 30.11 in 10.0 mi WNW 8.1 mph - N/A   Clear
7:53 AM 52.0 °F 46.9 °F 83% 30.12 in 10.0 mi NW 12.7 mph - N/A   Clear
8:53 AM 57.0 °F 48.9 °F 74% 30.12 in 10.0 mi NW 9.2 mph - N/A   Clear
9:53 AM 61.0 °F 48.9 °F 64% 30.13 in 10.0 mi NNW 12.7 mph - N/A   Clear
10:53 AM 64.9 °F 48.0 °F 54% 30.13 in 10.0 mi NW 9.2 mph - N/A   Clear
11:53 AM 68.0 °F 46.0 °F 45% 30.11 in 10.0 mi NNW 9.2 mph 17.3 mph N/A   Clear
12:53 PM 71.1 °F 41.0 °F 34% 30.09 in 10.0 mi NNW 10.4 mph - N/A   Clear
1:53 PM 73.0 °F 39.9 °F 30% 30.07 in 10.0 mi North 8.1 mph - N/A   Clear
2:53 PM 75.0 °F 36.0 °F 24% 30.06 in 10.0 mi North 6.9 mph - N/A   Clear
3:53 PM 73.9 °F 35.1 °F 24% 30.06 in 10.0 mi Variable 4.6 mph - N/A   Clear
4:53 PM 75.0 °F 36.0 °F 24% 30.07 in 10.0 mi West 9.2 mph - N/A   Clear
5:53 PM 73.9 °F 37.0 °F 26% 30.07 in 10.0 mi Calm Calm - N/A   Clear
6:53 PM 68.0 °F 44.1 °F 42% 30.10 in 10.0 mi Calm Calm - N/A   Clear
7:53 PM 61.0 °F 46.9 °F 60% 30.11 in 10.0 mi Calm Calm - N/A   Clear
8:53 PM 59.0 °F 44.1 °F 58% 30.12 in 10.0 mi Calm Calm - N/A   Clear
9:41 PM 55.4 °F 46.4 °F 72% 30.15 in 1.8 mi Calm Calm - N/A   Haze
9:51 PM 55.4 °F 46.4 °F 72% 30.15 in 3.0 mi Calm Calm - N/A   Haze
9:53 PM 55.9 °F 46.0 °F 69% 30.12 in 5.0 mi Calm Calm - N/A   Haze
10:53 PM 54.0 °F 44.1 °F 69% 30.12 in 3.0 mi Calm Calm - N/A   Haze
11:06 PM 53.6 °F 44.6 °F 72% 30.15 in 2.0 mi Calm Calm - N/A   Haze
11:16 PM 55.4 °F 44.6 °F 67% 30.15 in 1.0 mi Calm Calm - N/A   Haze
11:30 PM 53.6 °F 44.6 °F 72% 30.15 in 3.0 mi SW 3.5 mph - N/A   Haze
11:44 PM 53.6 °F 44.6 °F 72% 30.15 in 1.8 mi WSW 4.6 mph - N/A   Haze
11:53 PM 53.1 °F 44.1 °F 71% 30.11 in 1.2 mi WSW 3.5 mph - N/A   Haze